User: anonymous   Login
Location: Freemans Gardens
(41.6414°N, 83.6077°W)
Time: 11:07:38
(UTC+00:00)
Language:

Cosmos 1745 Rocket - Orbit

View from above orbital plane
View from above orbital plane
View from above satellite
View from above satellite

Ground track
Ground track

The orbit data is extracted from the following two-line orbital elements,

1 16728U 86037B   21022.94619352  .00000059  00000-0  43853-4 0  9995
2 16728  82.9540  81.8334 0032178 121.5540  51.3049 13.76738352741357
Epoch (UTC): 22 January 2021 22:42:31
Eccentricity: 0.0032178
inclination: 82.9540°
perigee height: 952 km
apogee height: 999 km
right ascension of ascending node: 81.8334°
argument of perigee: 121.5540°
revolutions per day: 13.76738352
mean anomaly at epoch: 51.3049°
orbit number at epoch: 74135

The dashed part of the orbit path shows where the satellite is in the earth's shadow,  

DLR